7 * 24
多渠道服务支持
GALILEO 27 (223)是欧洲空间局(ESA)伽利略全球卫星导航系统的成员,于2021年12月5日发射入轨。该卫星补充完善了伽利略系统的卫星星座布局,助力系统实现全球覆盖,为交通、农业、搜救等领域提供高精度定位与导航服务,打破了GPS垄断,推动全球卫星导航产业向多元化、高精度方向发展,提升了区域导航服务的可靠性。
(ESA)
| 数据来源 | 国际轨道数据 |
| 星历时间: | 2026-09-08T17:15:31+0800 3天前 查看轨道信息 |
| 半长轴: | 29600.089km |
| 偏心率: | 0.0003955 |
| 轨道倾角: | 57.127° |
| 近地点辐角 | 220.398° |
| 升交点赤经 | 339.428° |
| 平近点角 | 200.375° |
| 近地点: | 23210.245km |
| 远地点: | 23233.659km |
| 周期: | 844.694分钟 |
| 每日圈数: | 1.70476 |